Zurück zum Katalog

COSMOS 2465

GLONASS

AktivNavigationMEO
NORAD 37138·PAYLOAD·🇷🇺 Russia

Gestartet Sep 2, 2010 von Baikonur Cosmodrome

Loading…

Nächste Überflüge (nächste 24 Stunden)

TLE

AktuellSource: Space-Track

Epoche: Sep 12, 2026, 14:21 UTC

1 37138U 10041B   26255.59795554  .00000008  00000-0  00000-0 0  9995
2 37138  63.9108 187.2487 0041121 181.5170   7.2114  2.13098344124725

Verfolge COSMOS 2465 in Echtzeit mit AllMySat

Download on the App Store